www.pogodaiklimat.ru

Погода и климат >> Архив погоды >> Россия >> Оренбургская область >> Зерносовхоз Озерный


ПОГОДА в Зерносовхозе Озерном

  • Прогноз погоды в Зерносовхозе Озерном
  • Монитор погоды в Зерносовхозе Озерном

АРХИВ ПОГОДЫ в Зерносовхозе Озерном

Время (UTC), дата Ветер
(напр.,м/с)
 
Видим.   Явления Облачность Т
(С)
Тd
(С)
f
(%)
Тe
(С)
Тes
(С)
Комфортность P
(гПа)
Po
(гПа)
Тmin
(С)
Tmax
(С)
R
(мм)
R24
(мм)
S
(см)
00 16.09 Ю 3 10 км 9/9 630 м
[Sc]
+12.5 +0.9 45 +11 +11 1012.7 975.8
03 16.09 Ю 2 20 км 9/9 630 м
[Sc]
+12.6 +0.8 44 +12 +12 1011.7 974.8 +12.0
06 16.09 З 7-11
{11}
20 км 9/0
[Cs]
+17.4 +5.1 44 +16 +18 1011.2 974.9
09 16.09 ЮЗ 10-15
{16}
20 км 9/9 660 м
[Sc]
+17.8 +4.8 42 +17 +17 1010.8 974.6
12 16.09 З 8-13
{16}
20 км 9/9 630 м
[Sc diur, vesp]
+16.1 +3.5 43 +15 +15 1011.8 975.4
15 16.09 З 2
{12}
10 км 9/0
[Ac As]
+12.9 +3.1 51 +12 +12 1012.7 975.8 +18.8
18 16.09 ЮЗ 3 10 км 9/0
[Cs]
+10.1 +1.1 54 +8 +8 1013.2 975.9
21 16.09 ЮЗ 2 10 км ясно +8.9 +0.7 56 +8 +8 1013.6 976.2
00 17.09 Ю 2 10 км 9/0
[Ac As]
+3.1 -0.8 76 0 0 1014.5 976.3
03 17.09 Ю 2 20 км 9/0
[Ci fib]
+6.5 +1.2 69 +4 +5 1013.7 975.9 +2.5
06 17.09 ЮЗ 8-12
{12}
20 км 9/0
[Ci fib]
+18.5 +0.4 30 +18 +19 1011.6 975.5
09 17.09 ЮЗ 8-13
{14}
20 км 9/0
[Cc]
+22.4 -2.6 19 +21 +22 комфорт 1009.7 974.1
12 17.09 ЮЗ 8-12
{14}
20 км 9/0
[Ci fib]
+22.8 -3.8 17 +21 +22 комфорт 1008.9 973.3
15 17.09 Ю 4
{12}
10 км 9/0
[]
+14.9 -0.2 36 +14 +14 1010.0 973.4 +23.1
18 17.09 Ю 3 10 км 9/0
[Cs]
+10.0 -1.6 44 +8 +8 1010.6 973.4
21 17.09 Ю 2 10 км 9/0
[Cs]
+8.4 -1.6 49 +7 +7 1010.2 972.8
00 18.09 Ю 3 10 км 9/0
[Ac lent]
+10.5 -1.7 43 +9 +9 1009.3 972.2
03 18.09 Ю 6 20 км 9/0
[Ac lent]
+14.9 +0.3 37 +13 +14 1007.9 971.4 +8.4
06 18.09 ЮЗ 8-12
{16}
20 км 10/10 600 м
[Cb calv]
+17.4 +12.1 71 +16 +16 1008.0 971.9
09 18.09 Ю 4
{12}
10 км слаб. ливневой дождь 10/10 600 м
[Cb cap]
+17.1 +14.0 82 +17 +17 1007.9 971.8
12 18.09 ЮВ 3 20 км {ливн. осадки} 9/9 600 м
[Cb cap]
+16.6 +13.8 84 +16 +17 1007.1 971.0
15 18.09 Ю 2 10 км 8/8 600 м
[Sc diur, vesp]
+14.3 +9.8 74 +14 +14 1007.2 970.8 +19.4 0.3
18 18.09 З 2 10 км 9/0
[Ci fib]
+12.5 +10.2 86 +12 +12 1008.3 971.6
21 18.09 З 2 4000 м дымка ясно +7.8 +7.3 97 +6 +6 1009.2 971.8
00 19.09 ЮВ 2 4000 м дымка ясно +6.6 +6.3 98 +4 +4 1009.2 971.7
03 19.09 Ю 4 20 км 9/0
[Ci fib]
+9.2 +8.9 98 +6 +6 1007.9 970.7 +5.4
06 19.09 Ю 11-16
{16}
20 км 9/9 660 м
[Sc]
+19.3 +10.1 55 +19 +19 1003.9 968.2
09 19.09 З 11-19
{23}
20 км 10/10 630 м
[Sc]
+16.4 +12.4 77 +14 +14 1004.2 968.2
12 19.09 ЮЗ 13-20
{24}
20 км 6/6 600 м
[Cu hum]
+17.8 -4.1 22 +16 +16 1005.5 969.5
15 19.09 З 8-13
{22}
10 км ясно +13.4 -0.5 38 +11 +11 1008.8 972.1 +21.2
18 19.09 З 6
{14}
10 км ясно +9.0 +0.9 57 +6 +6 1012.1 974.7
21 19.09 ЮЗ 5
{10}
10 км ясно +5.8 +1.5 74 +2 +2 1014.4 976.5
00 20.09 ЮЗ 3 10 км ясно +2.9 +1.0 87 -1 -1 1016.7 978.4
03 20.09 ЮЗ 3 20 км ясно +4.0 +2.1 87 0 +1 1017.7 979.4 +1.1
06 20.09 З 7-10
{11}
20 км 4/0
[Ci sp]
+14.0 +3.5 49 +12 +14 1017.4 980.4
09 20.09 З 8-12
{13}
20 км 9/9 720 м
[Cu hum]
+15.5 +1.9 40 +14 +14 1017.2 980.5
12 20.09 З 4
{12}
20 км 9/9 720 м
[Cu hum]
+15.2 +1.1 38 +14 +14 1017.2 980.4
15 20.09 З 2 10 км 9/0
[Ac As]
+8.4 +0.3 57 +7 +7 1018.6 980.9 +15.8
18 20.09 Ю 1 10 км 9/0
[Ci sp]
+7.6 +2.5 70 +7 +7 1019.4 981.6
21 20.09 СВ 1 10 км 9/0
[Cs]
+1.4 -2.1 77 -0 -0 1020.3 981.6
00 21.09 ЮВ 1 10 км 9/0
[Ac lent]
+5.1 +1.6 78 +4 +4 1018.9 980.8
03 21.09 В 2 20 км 9/9 660 м
[Sc]
+8.5 +1.9 63 +7 +7 1017.6 980.0 +0.7
06 21.09 ЮВ 3 20 км 10/10 630 м
[Sc]
+12.2 +3.6 56 +11 +11 1014.3 977.2
09 21.09 ЮВ 3 10 км слаб. ливневой дождь 10/10 300 м
[Cb calv]
+11.0 +7.1 77 +9 +9 1012.6 975.5
12 21.09 СВ 4 10 км гроза, ливневой дождь 10/10 600 м
[Cb cap]
+9.2 +7.8 91 +6 +6 1008.2 971.0
15 21.09 В 7-11
{11}
10 км в посл. час ливневой дождь {гроза} 10/10 600 м
[Cb cap]
+8.8 +7.7 93 +4 +4 1002.5 965.5 +14.0 6
18 21.09 ЮВ 2
{11}
10 км слаб. ливневой дождь {гроза} 10/10 540 м
[Cb cap]
+9.2 +8.7 97 +7 +7 1000.0 963.2
21 21.09 СЗ 2 10 км слаб. ливневой дождь 10/10 500 м
[Cb cap]
+8.8 +8.4 97 +7 +7 998.6 961.8
00 22.09 З 7-11
{11}
10 км {ливн. осадки} 9/9 570 м
[Cb calv]
+8.5 +8.1 97 +4 +4 998.5 961.6
03 22.09 З 6
{11}
20 км 9/9 630 м
[Sc diur, vesp]
+8.0 +7.1 94 +4 +4 1000.0 963.0 +7.9 13
06 22.09 З 8-12
{13}
20 км 10/10 660 м
[Sc]
+7.9 +6.5 91 +3 +3 1001.8 964.7
09 22.09 З 8-12
{15}
20 км 9/9 660 м
[Sc]
+10.1 +4.2 67 +6 +6 1003.4 966.5
12 22.09 З 7-11
{13}
20 км 9/9 700 м
[Sc]
+9.8 +4.5 70 +6 +6 1005.0 968.1
15 22.09 ЮЗ 4
{11}
10 км 3/3 600 м
[Sc diur, vesp]
+6.0 +2.8 80 +2 +2 1007.4 969.9 +10.9
18 22.09 ЮЗ 4 10 км ясно +4.4 +2.3 86 0 0 1008.7 970.9
21 22.09 Ю 3 10 км ясно +2.5 +1.4 92 -2 -2 1009.5 971.4

 

Местоположение метеостанции Зерносовхоз Озерный (Оренбургская область, Россия): широта 51.10 долгота 60.87 высота над уровнем моря 312 м.

В архиве по умолчанию представлена погода в Зерносовхозе Озерном за последнюю неделю. Архивные данные за месяц целиком и за предыдущие месяцы, начиная с января 2011 года, Вы можете получить, выбрав интересующий диапазон дат из раскрывающегося списка и нажав кнопку "Ввод!".


*Определитесь, кто Вы:
робот инопланетянин человек

Внимание! Время в таблицах - всемирное. Для получения местного времени необходимо прибавить поправку, которая равна 5 ч.

Смотрите также архив погоды в соседних городах и на ближайших метеорологических станциях:

Погода в Теренсае (Актюбинская область, Казахстан) (56 км)
Погода в Комсомольском (Костанайская область, Казахстан) (81 км)
Погода в Домбаровском (Оренбургская область, Россия) (100 км)
Погода в Айдырля (Оренбургская область, Россия) (117 км)
Погода в Аралколе (Актюбинская область, Казахстан) (128 км)
Погода в Баскудуке (Мангистауская область, Казахстан) (132 км)
Погода в Житикаре (Костанайская область, Казахстан) (137 км)
Погода в Карабутаке (Актюбинская область, Казахстан) (138 км)
Погода в Бредах (Челябинская область, Россия) (152 км)
Погода в Орске (Оренбургская область, Россия) (159 км)

Пояснения к столбцам:

Ветер - указаны скорость ветра в м/с - средняя за 10 мин, порывы в срок и между сроками (в фигурных скобках) и направление, откуда дует ветер: С - северный, СВ - северо-восточный, В - восточный, ЮВ - юго-восточный, Ю - южный, ЮЗ - юго-западный, З - западный, СЗ - северо-западный.
Видимость - горизонтальная дальность видимости в метрах или километрах. При видимости от 1 до 10 км при отсутствии осадков обычно наблюдается дымка, при ухудшении видимости до 1 км и менее - туман. В сухую погоду видимость может ухудшаться дымом, пылью или мглою.
Явления - указаны атмосферные явления, наблюдавшиеся в срок или в последний час перед сроком; фигурными скобками обозначены явления, наблюдавшиеся между сроками (за 1-3 часа до срока); квадратными скобками обозначены град или гололедные отложения с указанием их диаметра в мм.
Облачность - указаны через наклонную черту общая и нижняя облачность в баллах и высота нижней границы облаков в метрах; квадратными скобками обозначены формы облаков: Ci - перистые, Cs - перисто-слоистые, Cc - перисто-кучевые, Ac - высококучевые, As - высокослоистые, Sc - слоисто-кучевые, Ns - слоисто-дождевые, Cu - кучевые, Cb - кучево-дождевые. Подробнее классификацию облаков см. в Атласе облаков (PDF).
T - Температура воздуха - температура, измеренная на высоте 2 м над землей.
Td - Температура точки росы - температура, при понижении до которой содержащийся в воздухе водяной пар достигнет насыщения.
f - Относительная влажность воздуха - влажноcть воздуха, измеренная на высоте 2 м над землей.
Te - Эффективная температура - температура, которую ощущает одетый по сезону человек в тени. Характеристика душности погоды. При расчете учитывается влияние влажности воздуха и скорости ветра на теплоощущения человека.
Tes - Эффективная температура на солнце - температура, которую ощущает человек, с поправкой на солнечный нагрев. Характеристика знойности погоды. Зависит от высоты солнца над горизонтом, облачности и скорости ветра. Ночью, в пасмурную погоду, а также при ветре 12 м/с и более поправка равна нулю.
P - Атмосферное давление - приведенное к уровню моря атмосферное давление.
Po - Атмосферное давление - измеренное на уровне метеостанции атмосферное давление.
Tmin - Минимальная температура - минимум температуры воздуха на высоте 2 м над землей.
Tmax - Максимальная температура - максимум температуры воздуха на высоте 2 м над землей.
R - Количество осадков - Количество выпавших осадков за период времени, мм. При наведении курсора мыши на число - период времени, за который выпало указанное количество осадков.
R24 - Количество осадков - Количество выпавших осадков за 24 часа, мм.
S - Снежный покров - Высота снежного покрова, см. При наведении курсора мыши на число - состояние снежного покрова и степень покрытия местности в баллах.